Location: Bassano
(45.7667°N, 11.7333°E)
Time: 22:51:07
(UTC+00:00)

ISS - Pass Details

Date: 08 March 2021
Orbit: 418 x 421 km, 51.6° (Epoch: 22 April)

Event Time Altitude Azimuth Distance (km) Brightness Sun altitude
Exits shadow 04:41:26 13° 298° (WNW) 1,320 -1.7 -10.8°
Maximum altitude 04:44:21 87° 211° (SSW) 423 -3.8 -10.3°
Drops below altitude 10° 04:47:43 10° 121° (ESE) 1,494 0.0 -9.7°
Sets 04:49:48 0° 121° (ESE) 2,355 1.1 -9.4°
